Knox, IN

10:41 AM CDT on June 28, 2017 (GMT -0500)
Starke County

Weather History for KOXI - April, 2013

Change the Weather History Date:

Sunday, April 21, 2013

  Actual Average (KRCR) Record (KRCR)
Temperature  
Mean Temperature 40 °F -  
Max Temperature 77 °F 64 °F 78 °F (2014)
Min Temperature 28 °F 42 °F 30 °F (2013)
Degree Days  
Heating Degree Days 26    
Moisture  
Dew Point 25 °F    
Average Humidity 53    
Maximum Humidity 73    
Minimum Humidity 35    
Precipitation  
Precipitation 0.00 in - - ()
Sea Level Pressure  
Sea Level Pressure 30.45 in    
Wind  
Wind Speed 8 mph (SE)    
Max Wind Speed 16 mph    
Max Gust Speed 23 mph    
Visibility 10 miles    
Events      
Averages and records for this station are not official NWS values.
T = Trace of Precipitation, MM = Missing Value Source: NWS Daily Summary

Daily Weather History Graph

Daily Weather History Graph

Search for Another Location

Airport or City:

Trip Planner

Search our weather history database for the weather conditions in past years. The results will help you decide how hot, cold, wet, or windy it might be!

Date:

Astronomy

Apr. 21, 2013 Rise Set
Actual Time 5:57 AM CDT 7:33 PM CDT
Civil Twilight 5:28 AM CDT 8:02 PM CDT
Nautical Twilight 4:53 AM CDT 8:38 PM CDT
Astronomical Twilight 4:15 AM CDT 9:15 PM CDT
Moon 3:15 PM CDT (4/21) 3:22 AM CDT (4/21)
Length of Visible Light 14h 34m
Length of Day
13h 36m
Waxing Gibbous, 80% of the Moon is Illuminated
Apr 21
Waxing Gibbous
Apr 25
Full
May 2
Last Quarter
May 9
New
May 17
First Quarter

Hourly Weather History & Observations

Time (CDT) Temp. Windchill Dew Point Humidity Pressure Visibility Wind Dir Wind Speed Gust Speed Precip Events Conditions
12:15 AM 30.9 °F 26.2 °F 21.9 °F 69% 30.44 in 10.0 mi East 4.6 mph - N/A   Clear
12:35 AM 30.9 °F 26.2 °F 22.5 °F 71% 30.44 in 10.0 mi ESE 4.6 mph - N/A   Clear
12:55 AM 30.4 °F 25.6 °F 22.1 °F 71% 30.44 in 10.0 mi East 4.6 mph - N/A   Clear
1:15 AM 30.4 °F 26.9 °F 21.6 °F 70% 30.44 in 10.0 mi East 3.5 mph - N/A   Clear
1:35 AM 29.7 °F 24.7 °F 21.9 °F 73% 30.44 in 10.0 mi East 4.6 mph - N/A   Clear
4:35 AM 29.3 °F 25.6 °F 21.4 °F 72% 30.48 in 10.0 mi ESE 3.5 mph - N/A   Clear
4:55 AM 28.4 °F - 20.8 °F 73% 30.48 in 10.0 mi Calm Calm - N/A   Clear
5:15 AM 28.6 °F 24.8 °F 20.5 °F 72% 30.49 in 10.0 mi East 3.5 mph - N/A   Clear
5:35 AM 28.2 °F - 20.1 °F 72% 30.50 in 10.0 mi Calm Calm - N/A   Clear
5:55 AM 28.0 °F - 19.4 °F 70% 30.50 in 10.0 mi Calm Calm - N/A   Clear
6:15 AM 28.2 °F 24.4 °F 20.5 °F 73% 30.51 in 10.0 mi ESE 3.5 mph - N/A   Clear
7:35 AM 32.4 °F 25.3 °F 21.4 °F 64% 30.53 in 10.0 mi ESE 8.1 mph - N/A   Clear
7:55 AM 33.1 °F 25.5 °F 21.2 °F 62% 30.53 in 10.0 mi ESE 9.2 mph - N/A   Clear
8:15 AM 34.2 °F 26.2 °F 21.7 °F 60% 30.53 in 10.0 mi SE 10.4 mph - N/A   Clear
8:35 AM 35.2 °F 27.1 °F 21.7 °F 58% 30.53 in 10.0 mi SE 11.5 mph - N/A   Clear
8:55 AM 36.5 °F 28.2 °F 22.6 °F 57% 30.53 in 10.0 mi SE 12.7 mph - N/A   Clear
9:15 AM 37.8 °F 29.8 °F 22.6 °F 54% 30.54 in 5.0 mi SE 12.7 mph - N/A   Clear
9:35 AM 38.8 °F 30.8 °F 22.3 °F 51% 30.53 in 10.0 mi SE 13.8 mph 17.3 mph N/A   Clear
9:55 AM 39.7 °F 32.3 °F 22.1 °F 49% 30.53 in 10.0 mi ESE 12.7 mph - N/A   Clear
10:15 AM 40.6 °F 33.0 °F 22.6 °F 49% 30.54 in 10.0 mi SSE 13.8 mph - N/A   Clear
10:35 AM 41.0 °F 35.2 °F 21.9 °F 47% 30.54 in 10.0 mi ESE 9.2 mph - N/A   Clear
10:55 AM 41.9 °F 35.9 °F 22.3 °F 46% 30.53 in 10.0 mi ESE 10.4 mph - N/A   Clear
11:15 AM 43.0 °F 36.8 °F 23.0 °F 45% 30.53 in 10.0 mi ESE 11.5 mph - N/A   Clear
11:35 AM 44.1 °F 37.7 °F 23.5 °F 44% 30.53 in 10.0 mi SE 12.7 mph - N/A   Clear
11:55 AM 44.4 °F 39.0 °F 22.1 °F 41% 30.52 in 10.0 mi SE 10.4 mph - N/A   Clear
12:15 PM 45.1 °F 39.1 °F 21.9 °F 40% 30.51 in 10.0 mi ESE 12.7 mph 23.0 mph N/A   Clear
12:35 PM 45.5 °F 39.6 °F 23.2 °F 41% 30.51 in 10.0 mi ESE 12.7 mph 16.1 mph N/A   Clear
12:55 PM 46.6 °F - 23.2 °F 40% 30.50 in 10.0 mi ESE 15.0 mph - N/A   Clear
1:15 PM 46.9 °F - 23.5 °F 40% 30.49 in 10.0 mi ESE 10.4 mph 18.4 mph N/A   Clear
1:35 PM 47.1 °F - 22.8 °F 38% 30.48 in 10.0 mi SE 10.4 mph 18.4 mph N/A   Clear
1:55 PM 48.4 °F - 24.8 °F 40% 30.47 in 10.0 mi SSE 11.5 mph 19.6 mph N/A   Clear
2:15 PM 49.1 °F - 24.8 °F 39% 30.46 in 10.0 mi SE 12.7 mph - N/A   Clear
2:35 PM 49.3 °F - 25.2 °F 39% 30.45 in 10.0 mi ESE 11.5 mph 18.4 mph N/A   Clear
2:55 PM 49.8 °F - 25.2 °F 38% 30.44 in 10.0 mi SE 9.2 mph 17.3 mph N/A   Clear
3:15 PM 50.0 °F - 24.4 °F 37% 30.43 in 10.0 mi ESE 9.2 mph - N/A   Clear
3:35 PM 50.4 °F - 24.3 °F 36% 30.42 in 10.0 mi SE 11.5 mph 19.6 mph N/A   Clear
3:55 PM 50.5 °F - 25.3 °F 38% 30.41 in 10.0 mi SE 13.8 mph 19.6 mph N/A   Clear
4:15 PM 51.1 °F - 24.6 °F 36% 30.40 in 10.0 mi ESE 12.7 mph - N/A   Clear
4:35 PM 51.1 °F - 24.4 °F 35% 30.40 in 10.0 mi ESE 12.7 mph 17.3 mph N/A   Clear
4:55 PM 51.3 °F - 25.0 °F 36% 30.39 in 10.0 mi ESE 15.0 mph 19.6 mph N/A   Clear
5:15 PM 50.9 °F - 25.2 °F 37% 30.39 in 10.0 mi ESE 16.1 mph 19.6 mph N/A   Clear
5:35 PM 50.9 °F - 25.7 °F 38% 30.39 in 10.0 mi SE 13.8 mph 18.4 mph N/A   Clear
5:55 PM 50.7 °F - 26.1 °F 38% 30.38 in 10.0 mi SE 13.8 mph - N/A   Clear
6:15 PM 50.4 °F - 27.3 °F 41% 30.38 in 10.0 mi ESE 13.8 mph - N/A   Clear
6:35 PM 50.0 °F - 27.0 °F 41% 30.38 in 10.0 mi SE 15.0 mph - N/A   Clear
6:55 PM 49.3 °F - 27.5 °F 43% 30.38 in 10.0 mi SE 10.4 mph - N/A   Clear
7:15 PM 48.6 °F - 27.0 °F 43% 30.38 in 10.0 mi SE 15.0 mph - N/A   Clear
7:35 PM 47.3 °F - 27.9 °F 47% 30.39 in 10.0 mi SE 9.2 mph - N/A   Clear
7:55 PM 46.0 °F 41.0 °F 28.8 °F 51% 30.39 in 10.0 mi SE 10.4 mph - N/A   Clear
8:15 PM 45.1 °F 40.8 °F 29.1 °F 54% 30.39 in 10.0 mi SE 8.1 mph - N/A   Clear
8:35 PM 44.2 °F 39.2 °F 29.7 °F 57% 30.39 in 10.0 mi SE 9.2 mph - N/A   Clear
9:15 PM 43.7 °F 39.1 °F 29.7 °F 58% 30.39 in 10.0 mi SE 8.1 mph - N/A   Clear
9:35 PM 43.0 °F 38.8 °F 29.8 °F 60% 30.39 in 10.0 mi ESE 6.9 mph - N/A   Clear
9:55 PM 42.1 °F 37.7 °F 30.4 °F 63% 30.38 in 10.0 mi SE 6.9 mph - N/A   Clear
10:15 PM 41.7 °F 36.7 °F 30.6 °F 65% 30.38 in 10.0 mi SE 8.1 mph - N/A   Clear
10:35 PM 41.5 °F 36.4 °F 30.6 °F 65% 30.38 in 10.0 mi SE 8.1 mph - N/A   Clear
10:55 PM 41.2 °F 36.6 °F 30.6 °F 66% 30.38 in 10.0 mi SE 6.9 mph - N/A   Clear
11:15 PM 41.2 °F 36.0 °F 30.4 °F 65% 30.37 in 10.0 mi SE 8.1 mph - N/A   Clear
11:35 PM 41.4 °F 36.2 °F 30.4 °F 65% 30.37 in 10.0 mi SE 8.1 mph - N/A   Clear
11:55 PM 41.0 °F 35.8 °F 30.9 °F 67% 30.37 in 10.0 mi SE 8.1 mph - N/A   Clear